Temperature
23 22 22 22 22 21 21 21 20 20 20 19 19 19 19 19 19 19 19 19 19 19 19 19 18 18 18 18 18 18 18 18 18 18 18 18 18 18 18 18 18 18 18
22 22 22 22 22 21 21 21 21 20 20 20 20 19 19 19 19 19 19 19 19 19 19 19 19 18 18 18 18 18 18 18 18 18 18 18 18 18 18 18 18 18 18
23 22 22 22 22 21 21 21 21 21 20 20 19 19 19 19 19 19 19 19 19 19 19 19 18 18 18 18 18 18 18 18 18 18 18 17 17 18 18 18 18 18 18
23 23 22 22 22 22 22 21 21 21 20 20 20 19 19 19 19 19 19 19 19 19 19 18 18 18 18 18 18 18 18 18 18 18 18 17 17 17 17 18 18 18 18
23 23 23 23 22 22 22 22 21 21 21 20 20 20 20 20 19 19 19 19 19 19 18 18 18 18 18 18 18 18 18 18 18 18 18 17 17 17 17 17 18 18 18
24 23 23 23 22 22 22 22 21 21 21 20 20 20 20 20 19 19 19 19 19 19 19 18 18 18 18 18 18 18 18 18 18 18 17 17 17 17 17 17 17 17 17
24 23 23 22 22 22 22 21 21 21 21 20 20 20 20 20 19 19 19 19 19 19 19 19 19 18 18 18 18 18 18 18 18 18 17 17 17 17 17 17 17 17 17
24 23 23 23 22 22 22 22 21 21 21 21 20 20 20 20 19 19 19 19 19 19 19 19 19 18 18 18 18 18 18 18 18 17 17 17 17 17 17 17 17 16 16
24 24 23 23 23 22 22 22 22 21 21 21 20 20 20 20 20 19 19 19 19 19 19 19 18 18 18 18 18 18 18 18 18 18 17 17 17 17 17 17 17 16 16
24 24 23 23 23 23 22 22 22 22 21 21 20 20 20 20 20 19 19 19 19 19 19 19 18 18 18 18 18 18 18 18 18 18 17 17 17 17 17 17 16 16 16
24 23 23 23 23 22 22 22 21 21 21 21 21 20 20 20 20 19 19 19 19 19 18 18 18 18 18 18 18 18 18 18 18 17 17 17 17 17 17 17 16 16 16
23 23 23 23 22 22 22 21 21 21 21 21 21 20 20 20 20 19 19 19 19 18 18 18 18 18 18 18 18 18 18 18 17 17 17 17 17 17 17 16 16 16 16
23 23 23 22 22 22 21 21 21 21 21 21 21 20 20 20 20 19 19 19 19 18 18 18 18 18 18 18 18 17 17 17 17 17 17 17 16 16 16 16 16 16 16
22 22 22 22 22 21 21 21 21 20 20 20 20 20 20 20 19 19 19 19 19 18 18 18 18 18 18 18 18 17 17 17 17 17 16 16 16 16 16 16 16 15 15
21 21 21 21 21 21 21 21 20 20 20 20 20 20 19 19 19 19 19 19 18 18 18 18 18 18 18 17 17 17 17 17 16 16 16 16 16 16 16 16 15 15 15
20 20 20 20 21 21 21 20 20 20 20 20 20 19 19 19 19 18 18 18 18 18 18 18 18 17 17 17 17 17 17 16 16 16 16 16 16 16 15 15 15 15 15
20 20 20 20 20 20 20 20 20 20 20 20 19 19 19 19 19 18 18 18 18 18 17 17 17 17 17 17 17 17 16 16 16 16 16 16 15 15 15 15 15 15 14
20 20 20 20 20 20 20 20 20 20 19 19 19 19 18 18 18 18 18 18 17 17 17 17 17 17 17 17 17 16 16 16 16 15 15 15 15 15 15 15 14 14 14
20 19 19 19 19 19 19 19 19 19 19 18 18 18 18 18 18 17 17 17 17 17 17 17 16 16 16 16 16 16 16 15 15 15 15 15 15 15 14 14 14 14 14
19 19 19 19 19 19 19 19 19 18 18 18 18 18 18 18 17 17 17 17 17 17 16 16 16 16 16 16 16 15 15 15 15 15 14 14 14 14 14 14 14 14 14
19 19 19 18 18 18 18 18 18 18 17 17 17 17 17 17 17 17 17 17 16 16 16 15 15 15 15 15 15 15 15 15 14 14 14 14 14 14 14 13 13 13 13
18 18 18 18 17 17 17 17 17 17 17 17 17 17 16 16 16 16 16 16 16 15 15 15 15 14 14 14 14 14 14 14 14 14 13 13 13 13 13 13 13 13 13
18 17 17 17 17 17 17 16 16 16 16 16 16 16 16 16 16 16 15 15 15 15 15 14 14 14 14 14 14 14 14 14 13 13 13 13 13 12 12 12 12 12 12
17 17 17 16 16 16 16 16 16 16 16 16 16 16 15 15 15 15 15 15 15 14 14 14 14 14 14 14 13 13 13 13 13 13 12 12 12 12 12 12 12 12 12
16 16 16 16 16 16 16 16 16 15 15 15 15 15 15 15 15 14 14 14 14 14 14 14 14 14 13 13 13 13 13 13 12 12 12 12 12 12 11 11 11 11 11
16 16 16 15 15 15 15 15 15 15 15 14 14 15 14 14 14 14 14 14 14 14 14 13 13 13 13 13 13 12 12 12 12 12 12 12 11 11 11 11 11 11 11
Wind_Speed
12 12 13 14 13 11 11 10 9 8 6 4 4 3 3 3 3 4 7 8 8 7 5 3 3 2 2 2 2 2 1 1 1 2 2 2 2 2 2 2 3 4 6
11 12 12 12 12 12 12 11 10 9 8 5 4 3 3 3 3 3 4 7 8 7 6 4 3 3 3 2 2 2 1 0 1 2 1 2 3 3 2 2 3 3 3
17 16 16 15 15 14 14 13 11 10 9 7 4 3 2 1 2 2 2 4 7 7 6 5 4 3 3 3 3 3 3 2 1 1 3 2 2 2 3 2 2 2 2
15 15 15 15 16 16 14 12 11 10 9 8 7 7 6 5 5 4 3 3 5 6 6 6 5 4 4 4 4 3 3 3 2 1 1 2 3 1 2 3 2 2 2
16 16 16 15 14 14 13 12 11 10 9 9 9 8 6 5 4 3 4 4 4 5 6 6 5 5 4 4 4 3 3 3 3 2 2 1 1 2 2 3 3 3 2
15 15 14 12 11 12 12 11 11 10 9 9 9 9 8 7 6 5 5 4 3 3 5 5 5 5 4 4 4 4 4 3 3 3 2 3 2 2 3 3 3 3 3
14 13 13 12 11 12 12 12 12 11 10 10 9 9 9 8 8 7 6 5 4 4 5 5 4 4 4 4 4 4 3 3 3 3 3 3 3 3 3 2 2 3 3
11 12 13 14 13 13 13 14 14 12 11 11 10 9 8 7 6 7 6 7 6 6 6 6 5 5 5 4 4 3 3 3 3 3 3 2 2 3 3 3 2 2 3
12 12 12 13 14 14 14 15 14 12 12 12 11 9 8 7 7 7 6 6 5 6 6 6 6 5 5 5 4 3 4 3 3 3 3 2 2 2 2 3 3 3 2
9 11 11 12 12 13 13 12 13 13 12 11 11 10 8 8 7 6 7 6 6 5 6 6 6 5 5 4 4 3 3 3 3 3 3 2 2 2 2 2 2 3 4
9 9 9 9 9 9 10 11 11 11 11 11 10 9 8 8 7 7 7 6 6 6 6 6 6 6 5 5 5 5 4 4 3 3 3 3 3 2 2 2 2 2 3
7 7 7 8 8 8 8 8 9 10 11 11 10 10 9 8 8 8 7 6 6 6 6 6 6 6 5 5 6 6 5 5 4 4 3 4 3 2 2 2 2 2 3
4 5 5 6 6 7 7 7 7 8 8 9 9 9 9 9 10 9 8 7 6 6 5 6 6 6 5 5 5 5 5 5 5 5 5 4 3 3 3 3 3 2 2
4 3 3 4 4 5 6 6 5 6 7 8 9 9 10 10 9 9 8 8 7 6 6 6 6 6 5 5 5 5 5 5 5 5 5 4 5 5 5 4 3 3 2
3 2 2 2 2 3 3 4 4 5 6 7 8 9 9 8 7 7 7 7 7 8 6 6 5 5 5 5 5 5 5 4 4 3 4 4 4 5 4 3 3 3 2
3 3 2 3 3 3 3 4 4 5 6 8 8 7 6 7 8 7 7 7 7 6 5 6 5 5 5 6 6 5 4 4 4 4 3 3 2 3 3 3 4 4 4
4 4 3 3 3 3 3 4 5 4 5 6 7 6 7 7 7 8 7 7 7 6 6 6 5 5 5 6 6 6 4 4 4 4 4 3 2 1 1 0 0 1 2
3 2 1 1 1 2 2 3 4 4 5 5 6 6 6 6 5 5 6 6 6 6 6 6 5 4 4 5 5 5 4 3 4 4 4 4 3 2 3 2 1 1 1
3 3 2 2 1 1 2 2 3 3 3 3 4 5 5 6 5 4 4 4 4 5 5 5 6 5 4 5 5 4 3 2 2 2 3 4 4 4 5 3 2 0 2
2 2 2 2 1 1 1 3 2 3 3 3 3 3 4 5 5 5 4 3 4 4 5 4 5 5 5 5 5 5 3 2 2 1 1 3 4 4 5 4 3 2 2
1 2 2 2 1 1 2 2 2 2 3 2 3 2 2 4 4 3 3 3 3 3 4 4 3 3 4 4 5 5 4 4 3 2 1 2 3 4 4 4 3 4 3
2 2 2 1 1 1 2 2 2 2 2 3 3 3 2 2 3 3 3 3 4 4 3 3 2 2 2 3 4 5 5 4 4 3 2 2 2 3 3 2 2 2 2
2 2 2 2 2 1 1 2 2 1 2 3 3 3 2 2 3 4 4 3 3 4 4 4 3 2 2 2 4 4 4 4 3 2 3 2 3 3 1 2 2 2 2
1 1 3 2 1 1 1 1 2 2 3 3 2 2 2 2 2 2 3 3 4 4 4 4 3 2 2 1 2 2 2 2 2 1 2 3 4 3 2 1 1 1 1
1 2 3 3 1 1 1 1 1 3 3 2 2 2 2 2 2 2 1 2 3 5 6 5 4 4 3 4 5 4 3 3 3 3 3 3 2 2 1 1 1 1 1
1 2 2 2 1 1 1 1 2 3 4 2 2 2 2 2 3 3 2 3 2 2 4 5 5 4 5 6 6 5 5 6 7 5 3 2 2 2 1 1 0 0 1
Wind_Direction
183 177 175 170 167 166 164 166 167 173 166 159 157 154 160 162 162 173 178 177 178 175 167 161 157 153 149 159 157 141 132 126 97 74 5 332 293 252 239 224 211 219 215
173 176 173 172 170 173 173 170 173 175 175 176 171 163 160 168 171 172 178 181 179 180 180 165 160 158 138 133 147 137 128 166 123 129 96 348 339 322 276 253 223 227 209
180 180 181 181 176 180 180 179 179 178 178 171 155 148 118 111 142 173 186 190 183 183 178 171 162 159 157 177 189 170 158 186 235 168 150 160 241 304 321 307 276 245 231
183 184 183 184 185 184 180 176 177 177 176 170 166 168 171 179 193 184 187 193 189 184 182 178 173 169 173 186 196 183 178 169 200 243 210 192 176 185 313 322 312 285 251
186 187 187 188 186 181 178 177 175 179 178 175 177 178 188 189 181 175 182 191 195 193 187 181 175 176 179 184 191 188 185 180 185 198 203 203 196 187 190 272 302 312 279
189 187 184 179 178 177 177 177 176 183 181 179 181 185 188 183 177 182 187 195 200 202 197 185 180 182 185 189 194 190 185 190 187 192 188 181 184 200 191 227 259 276 282
184 180 175 176 177 176 179 180 180 185 185 185 189 192 193 188 189 189 191 191 195 206 208 199 187 188 193 191 185 180 187 188 187 199 207 203 206 194 184 198 243 265 280
172 175 176 176 179 181 184 184 186 188 186 189 196 198 194 195 199 197 193 196 202 207 203 195 194 194 193 195 182 181 192 189 198 209 205 213 227 202 191 188 195 262 290
171 172 175 177 179 184 191 190 185 189 191 192 193 197 197 198 200 200 196 197 201 204 198 195 194 199 199 192 178 194 203 195 205 213 205 210 230 212 206 192 184 189 251
166 170 175 179 182 187 191 190 186 190 194 194 195 197 197 200 202 197 201 198 198 200 189 190 192 195 194 188 187 198 205 203 224 216 202 214 228 224 211 199 204 198 204
164 162 167 176 176 176 184 191 191 191 193 194 195 197 197 201 200 203 204 200 196 191 189 190 192 198 201 196 192 201 200 203 222 224 204 223 220 214 226 212 206 212 201
157 159 160 159 164 170 175 185 194 195 196 195 194 199 199 199 202 208 202 195 198 198 195 191 193 198 197 193 194 203 203 202 211 219 214 234 230 224 224 209 218 225 213
128 135 146 163 171 173 175 181 188 192 193 190 194 199 198 200 203 206 204 199 200 201 198 192 195 198 197 197 200 201 204 209 214 213 213 227 214 225 227 217 223 231 232
119 124 139 162 173 173 177 184 187 185 184 190 197 201 202 204 205 204 200 199 196 197 198 198 200 199 198 200 202 201 208 215 220 219 215 216 212 216 218 223 223 225 230
100 103 132 150 151 172 184 176 179 182 183 187 197 206 208 202 198 201 202 198 198 203 198 194 200 204 203 207 201 203 207 211 218 228 227 226 221 219 216 220 221 213 220
138 132 146 152 156 176 195 191 193 195 187 190 197 199 196 192 193 199 200 196 201 202 193 195 199 206 222 212 200 192 203 210 212 221 232 234 227 223 218 215 214 199 199
140 153 171 173 181 189 187 198 206 199 188 191 193 192 191 190 197 201 198 201 202 198 195 198 198 210 218 196 195 200 201 207 213 214 213 226 230 197 143 115 61 241 223
157 170 171 182 194 188 182 192 185 181 191 195 198 200 193 191 196 198 204 210 202 193 191 193 194 197 209 193 198 202 209 215 220 218 210 201 208 205 161 143 120 287 284
173 182 184 181 180 181 176 154 159 161 176 191 196 192 185 184 183 190 205 211 195 189 187 190 193 194 213 200 194 190 202 211 219 214 208 195 200 201 171 154 162 310 325
141 155 158 125 132 197 145 135 156 160 177 185 183 176 176 180 183 190 195 203 194 192 184 190 197 194 206 201 189 183 190 200 220 228 232 216 201 197 182 175 174 193 251
118 137 121 116 153 116 111 124 149 187 193 160 143 144 165 173 175 182 182 184 184 169 163 172 195 202 206 189 183 179 189 190 190 203 237 255 210 194 192 184 189 207 199
73 97 96 70 38 91 113 123 179 208 162 145 147 157 157 163 165 170 171 165 168 162 165 165 189 215 212 187 179 171 174 170 167 187 211 238 197 177 176 167 162 162 131
99 96 102 79 46 53 134 157 221 191 144 134 145 155 142 144 173 175 180 176 178 175 175 175 187 208 214 188 159 150 151 147 161 177 177 156 141 127 129 126 124 123 112
115 110 111 104 70 39 65 167 182 164 143 143 148 142 141 139 147 160 174 179 181 176 179 179 184 190 189 193 173 165 158 136 125 120 97 95 97 99 107 89 75 95 132
174 139 140 141 156 163 149 157 135 127 125 132 138 137 145 150 132 117 127 173 184 184 184 188 182 178 195 213 184 172 172 170 162 127 87 80 80 84 68 63 42 46 63
130 118 133 160 173 133 123 139 141 137 139 136 143 146 152 150 144 135 95 57 99 140 171 181 180 194 197 183 171 168 164 153 144 128 134 147 153 162 173 173 207 302 256
Height
1517 1520 1522 1524 1526 1529 1531 1533 1535 1537 1539 1540 1541 1542 1543 1544 1545 1547 1548 1549 1550 1551 1552 1553 1554 1555 1555 1555 1555 1555 1556 1556 1556 1556 1556 1556 1556 1556 1557 1556 1557 1557 1557
1515 1518 1520 1522 1523 1526 1529 1531 1533 1535 1537 1539 1541 1542 1543 1544 1545 1546 1547 1549 1550 1551 1552 1552 1553 1554 1554 1554 1554 1554 1555 1555 1555 1555 1555 1555 1556 1555 1555 1555 1555 1555 1555
1509 1513 1516 1518 1521 1523 1526 1528 1531 1533 1536 1538 1540 1542 1543 1544 1545 1545 1546 1548 1549 1550 1551 1551 1552 1553 1553 1553 1553 1554 1554 1554 1555 1555 1555 1554 1554 1553 1553 1553 1554 1553 1553
1507 1509 1512 1515 1517 1519 1523 1526 1529 1532 1534 1536 1538 1539 1540 1541 1542 1544 1545 1547 1548 1548 1549 1550 1551 1552 1552 1552 1552 1553 1553 1553 1553 1554 1554 1554 1553 1553 1552 1552 1552 1552 1552
1504 1506 1509 1512 1515 1518 1521 1524 1527 1530 1532 1534 1536 1538 1539 1540 1542 1543 1544 1545 1546 1547 1548 1548 1549 1550 1551 1551 1551 1551 1552 1552 1552 1552 1552 1552 1552 1552 1551 1550 1550 1550 1550
1501 1503 1506 1510 1514 1517 1520 1523 1525 1527 1529 1531 1533 1535 1537 1538 1540 1541 1542 1544 1544 1545 1546 1547 1548 1548 1549 1549 1549 1549 1550 1550 1550 1550 1550 1550 1550 1549 1549 1548 1548 1547 1548
1498 1501 1505 1508 1511 1514 1517 1520 1522 1524 1526 1529 1531 1532 1534 1536 1537 1539 1541 1542 1543 1543 1544 1545 1546 1546 1547 1547 1547 1547 1547 1548 1548 1548 1548 1547 1548 1548 1547 1547 1546 1545 1545
1495 1498 1501 1504 1508 1511 1514 1516 1518 1520 1523 1525 1527 1529 1531 1533 1535 1537 1538 1539 1540 1541 1542 1543 1544 1544 1545 1545 1545 1545 1545 1545 1545 1545 1545 1545 1545 1545 1545 1545 1544 1543 1542
1492 1494 1498 1501 1504 1508 1510 1512 1514 1517 1519 1521 1523 1525 1528 1530 1532 1534 1535 1537 1538 1539 1540 1541 1541 1542 1542 1543 1543 1543 1543 1543 1543 1543 1543 1543 1542 1542 1542 1542 1542 1542 1540
1490 1493 1495 1498 1501 1504 1506 1509 1512 1514 1516 1518 1520 1522 1524 1526 1529 1530 1532 1533 1534 1536 1537 1537 1538 1539 1539 1540 1540 1540 1541 1541 1541 1541 1541 1540 1540 1539 1539 1539 1539 1539 1538
1488 1490 1493 1496 1498 1501 1505 1507 1509 1511 1513 1515 1517 1519 1521 1523 1525 1527 1528 1530 1531 1533 1533 1534 1535 1536 1536 1537 1537 1538 1538 1538 1538 1538 1538 1537 1537 1536 1536 1536 1536 1535 1535
1486 1489 1491 1493 1496 1499 1502 1504 1505 1507 1509 1511 1513 1515 1517 1519 1521 1522 1523 1525 1528 1529 1531 1532 1532 1533 1533 1534 1534 1535 1535 1535 1534 1535 1535 1534 1534 1533 1533 1533 1532 1532 1531
1485 1488 1490 1492 1494 1496 1498 1500 1502 1503 1505 1508 1509 1511 1513 1515 1516 1518 1520 1522 1524 1526 1527 1528 1529 1529 1530 1530 1531 1531 1531 1531 1531 1531 1531 1531 1530 1530 1529 1529 1528 1528 1528
1484 1486 1488 1490 1492 1494 1496 1497 1499 1500 1502 1504 1505 1507 1508 1510 1512 1514 1516 1518 1520 1522 1523 1524 1525 1526 1526 1527 1527 1527 1528 1527 1527 1527 1527 1527 1527 1526 1526 1525 1525 1524 1524
1485 1486 1487 1488 1490 1492 1494 1495 1496 1497 1499 1500 1501 1503 1505 1506 1508 1510 1512 1514 1516 1517 1519 1520 1521 1522 1522 1523 1523 1523 1523 1523 1523 1523 1523 1523 1523 1522 1522 1521 1521 1521 1520
1485 1486 1487 1487 1488 1489 1491 1492 1493 1494 1495 1496 1497 1499 1501 1502 1504 1505 1507 1510 1511 1513 1514 1515 1517 1517 1518 1518 1519 1519 1519 1519 1519 1519 1519 1519 1519 1518 1518 1518 1517 1517 1516
1483 1484 1484 1485 1485 1486 1487 1489 1490 1491 1492 1492 1494 1495 1496 1497 1499 1501 1502 1504 1506 1508 1509 1511 1512 1513 1513 1514 1514 1514 1514 1514 1514 1514 1514 1514 1514 1514 1514 1513 1513 1512 1512
1482 1483 1483 1483 1483 1483 1484 1485 1487 1488 1488 1489 1490 1491 1492 1493 1495 1497 1498 1500 1501 1503 1504 1506 1507 1508 1508 1509 1509 1510 1510 1510 1510 1510 1510 1510 1510 1510 1510 1509 1509 1508 1508
1481 1481 1481 1481 1481 1481 1481 1482 1483 1484 1485 1485 1486 1487 1488 1489 1490 1492 1493 1495 1497 1498 1499 1501 1502 1503 1503 1504 1504 1505 1505 1505 1505 1506 1507 1507 1507 1506 1506 1506 1505 1505 1504
1479 1479 1479 1479 1479 1479 1479 1479 1480 1480 1480 1481 1482 1483 1484 1485 1486 1488 1489 1491 1492 1493 1494 1496 1497 1498 1498 1499 1500 1500 1501 1501 1501 1502 1502 1503 1503 1503 1503 1503 1502 1501 1501
1476 1476 1476 1476 1476 1476 1477 1477 1477 1477 1478 1478 1479 1479 1480 1482 1483 1484 1485 1487 1488 1489 1489 1491 1492 1494 1494 1494 1495 1496 1497 1497 1497 1497 1498 1499 1499 1499 1499 1499 1499 1499 1498
1475 1474 1474 1474 1474 1475 1475 1474 1474 1475 1476 1476 1476 1477 1477 1478 1479 1480 1481 1483 1484 1485 1485 1486 1489 1490 1491 1491 1492 1492 1493 1493 1493 1494 1494 1495 1496 1496 1496 1496 1496 1496 1496
1472 1472 1472 1472 1472 1473 1473 1472 1472 1473 1473 1474 1474 1474 1475 1476 1477 1478 1478 1479 1481 1482 1483 1484 1485 1486 1487 1488 1489 1489 1489 1490 1491 1491 1492 1493 1494 1493 1494 1493 1493 1494 1493
1471 1470 1470 1470 1469 1470 1470 1470 1470 1471 1471 1471 1471 1472 1472 1473 1475 1475 1476 1477 1478 1479 1480 1481 1482 1483 1484 1485 1485 1486 1487 1488 1489 1489 1490 1491 1491 1491 1492 1491 1491 1491 1491
1469 1469 1468 1468 1468 1468 1467 1468 1468 1468 1469 1469 1470 1470 1470 1471 1472 1472 1473 1474 1475 1476 1477 1478 1480 1480 1481 1482 1483 1484 1484 1485 1487 1488 1488 1488 1489 1489 1489 1489 1489 1489 1489
1468 1467 1467 1467 1466 1466 1466 1466 1466 1467 1467 1467 1468 1468 1468 1469 1469 1470 1471 1472 1473 1475 1476 1477 1478 1479 1480 1481 1481 1482 1482 1484 1485 1486 1486 1486 1486 1487 1487 1487 1487 1487 1487